Weather History for Grand Marais Airport, MN

Change the Weather History Date:

Tuesday, June 26, 2012

  Actual Average Record
Temperature  
Mean Temperature 55 °F -  
Max Temperature 71 °F 68 °F 86 °F (2001)
Min Temperature 39 °F 48 °F 39 °F (2012)
Degree Days  
Heating Degree Days 10    
Growing Degree Days 5 (Base 50)    
Moisture  
Dew Point 45 °F    
Average Humidity 60    
Maximum Humidity 87    
Minimum Humidity 42    
Precipitation  
Precipitation 0.00 in - - ()
Sea Level Pressure  
Sea Level Pressure 29.99 in    
Wind  
Wind Speed 4 mph (SSW)    
Max Wind Speed 15 mph    
Max Gust Speed 20 mph    
Visibility 10 miles    
Events      
Averages and records for this station are not official NWS values.
T = Trace of Precipitation, MM = Missing Value Source: NWS Daily Summary

Daily Weather History Graph

Daily Weather History Graph

Search for Another Location

Airport:

Trip Planner

Search our weather history database for the weather conditions in past years. The results will help you decide how hot, cold, wet, or windy it might be!

Date:

Astronomy

Jun. 26, 2012 Rise Set
Actual Time 5:04 AM CDT 9:04 PM CDT
Civil Twilight 4:23 AM CDT 9:45 PM CDT
Nautical Twilight 3:26 AM CDT 10:42 PM CDT
Astronomical Twilight 1:52 AM CDT 12:15 AM CDT
Moon 12:56 PM CDT (6/26) 12:00 AM CDT (6/26)
Length of Visible Light 17h 21m
Length of Day
15h 59m
Waxing Crescent, 45% of the Moon is Illuminated
Jun 26
Waxing Crescent
Jun 26
First Quarter
Jul 3
Full
Jul 10
Last Quarter
Jul 18
New

Hourly Weather History & Observations

Time (CDT) Temp. Windchill Dew Point Humidity Pressure Visibility Wind Dir Wind Speed Gust Speed Precip Events Conditions
12:13 AM 44.6 °F 43.1 °F 39.2 °F 81% 30.09 in 10.0 mi WNW 3.5 mph - N/A   Clear
12:34 AM 42.8 °F - 39.2 °F 87% 30.09 in 10.0 mi Calm Calm - N/A   Clear
12:53 AM 42.8 °F - 39.2 °F 87% 30.08 in 10.0 mi Calm Calm - N/A   Clear
1:13 AM 46.4 °F 45.2 °F 39.2 °F 76% 30.07 in 10.0 mi WSW 3.5 mph - N/A   Clear
1:34 AM 42.8 °F - 37.4 °F 81% 30.06 in 10.0 mi Calm Calm - N/A   Clear
1:53 AM 42.8 °F - 39.2 °F 87% 30.06 in 10.0 mi Calm Calm - N/A   Clear
2:13 AM 44.6 °F 43.1 °F 39.2 °F 81% 30.06 in 10.0 mi West 3.5 mph - N/A   Clear
2:34 AM 41.0 °F - 37.4 °F 87% 30.06 in 10.0 mi Calm Calm - N/A   Clear
2:53 AM 41.0 °F 38.0 °F 37.4 °F 87% 30.05 in 10.0 mi West 4.6 mph - N/A   Clear
3:14 AM 41.0 °F - 37.4 °F 87% 30.05 in 10.0 mi Calm Calm - N/A   Clear
3:33 AM 41.0 °F 38.0 °F 37.4 °F 87% 30.05 in 10.0 mi West 4.6 mph - N/A   Clear
3:54 AM 39.2 °F 35.9 °F 35.6 °F 87% 30.05 in 10.0 mi West 4.6 mph - N/A   Clear
4:13 AM 41.0 °F 38.0 °F 37.4 °F 87% 30.06 in 10.0 mi WSW 4.6 mph - N/A   Clear
4:33 AM 46.4 °F 45.2 °F 35.6 °F 66% 30.06 in 10.0 mi West 3.5 mph - N/A   Clear
4:54 AM 44.6 °F 41.4 °F 35.6 °F 71% 30.06 in 10.0 mi West 5.8 mph - N/A   Clear
5:13 AM 44.6 °F 41.4 °F 35.6 °F 71% 30.06 in 10.0 mi West 5.8 mph - N/A   Clear
5:33 AM 42.8 °F 38.6 °F 35.6 °F 76% 30.06 in 10.0 mi West 6.9 mph - N/A   Clear
5:54 AM 51.8 °F - 35.6 °F 54% 30.06 in 10.0 mi WSW 4.6 mph - N/A   Clear
6:13 AM 53.6 °F - 35.6 °F 51% 30.06 in 10.0 mi WSW 3.5 mph - N/A   Clear
6:34 AM 57.2 °F - 37.4 °F 48% 30.06 in 10.0 mi WSW 3.5 mph - N/A   Clear
6:54 AM 57.2 °F - 37.4 °F 48% 30.05 in 10.0 mi WSW 4.6 mph - N/A   Clear
7:14 AM 60.8 °F - 37.4 °F 42% 30.05 in 10.0 mi WSW 3.5 mph - N/A   Clear
7:33 AM 62.6 °F - 39.2 °F 42% 30.06 in 10.0 mi WSW 3.5 mph - N/A   Clear
7:54 AM 62.6 °F - 41.0 °F 45% 30.06 in 10.0 mi SW 3.5 mph - N/A   Clear
8:13 AM 64.4 °F - 42.8 °F 45% 30.06 in 10.0 mi Calm Calm - N/A   Clear
8:34 AM 64.4 °F - 44.6 °F 49% 30.05 in 10.0 mi SSW 3.5 mph - N/A   Clear
8:53 AM 64.4 °F - 46.4 °F 52% 30.04 in 10.0 mi South 3.5 mph - N/A   Clear
9:13 AM 66.2 °F - 48.2 °F 52% 30.04 in 10.0 mi SW 3.5 mph - N/A   Clear
9:34 AM 69.8 °F - 48.2 °F 46% 30.03 in 10.0 mi SSW 5.8 mph - N/A   Clear
9:53 AM 69.8 °F - 48.2 °F 46% 30.03 in 10.0 mi SSW 4.6 mph - N/A   Clear
10:13 AM 69.8 °F - 48.2 °F 46% 30.03 in 10.0 mi SSE 8.1 mph - N/A   Clear
10:34 AM 69.8 °F - 48.2 °F 46% 30.03 in 10.0 mi SSW 8.1 mph - N/A   Clear
10:53 AM 69.8 °F - 48.2 °F 46% 30.02 in 10.0 mi SSW 4.6 mph - N/A   Clear
11:13 AM 69.8 °F - 48.2 °F 46% 30.02 in 10.0 mi South 5.8 mph - N/A   Clear
11:34 AM 69.8 °F - 48.2 °F 46% 30.02 in 10.0 mi SSW 8.1 mph - N/A   Clear
11:53 AM 69.8 °F - 48.2 °F 46% 30.01 in 10.0 mi South 9.2 mph 17.3 mph N/A   Clear
12:13 PM 69.8 °F - 48.2 °F 46% 30.01 in 10.0 mi SSW 9.2 mph 16.1 mph N/A   Clear
12:34 PM 69.8 °F - 46.4 °F 43% 30.01 in 10.0 mi South 12.7 mph 17.3 mph N/A   Clear
12:53 PM 69.8 °F - 46.4 °F 43% 30.01 in 10.0 mi SSW 9.2 mph 17.3 mph N/A   Clear
1:14 PM 69.8 °F - 46.4 °F 43% 30.00 in 10.0 mi South 10.4 mph 17.3 mph N/A   Clear
1:34 PM 69.8 °F - 46.4 °F 43% 29.99 in 10.0 mi SSW 10.4 mph 18.4 mph N/A   Clear
1:53 PM 69.8 °F - 46.4 °F 43% 29.98 in 10.0 mi SSW 12.7 mph 19.6 mph N/A   Clear
2:13 PM 69.8 °F - 48.2 °F 46% 29.97 in 10.0 mi SSW 15.0 mph 18.4 mph N/A   Clear
2:34 PM 69.8 °F - 50.0 °F 49% 29.97 in 10.0 mi SSW 11.5 mph 18.4 mph N/A   Clear
2:54 PM 71.6 °F - 50.0 °F 46% 29.96 in 10.0 mi South 11.5 mph - N/A   Clear
3:13 PM 69.8 °F - 48.2 °F 46% 29.96 in 10.0 mi South 13.8 mph 17.3 mph N/A   Clear
3:33 PM 69.8 °F - 48.2 °F 46% 29.96 in 10.0 mi South 10.4 mph - N/A   Clear
3:54 PM 69.8 °F - 50.0 °F 49% 29.95 in 10.0 mi SSE 8.1 mph - N/A   Clear
4:13 PM 69.8 °F - 50.0 °F 49% 29.95 in 10.0 mi South 8.1 mph - N/A   Clear
4:33 PM 69.8 °F - 50.0 °F 49% 29.94 in 10.0 mi South 6.9 mph - N/A   Clear
4:54 PM 69.8 °F - 51.8 °F 53% 29.93 in 10.0 mi South 8.1 mph - N/A   Clear
5:14 PM 69.8 °F - 50.0 °F 49% 29.92 in 10.0 mi South 6.9 mph - N/A   Clear
5:34 PM 69.8 °F - 50.0 °F 49% 29.92 in 10.0 mi SSE 8.1 mph - N/A   Clear
5:53 PM 68.0 °F - 50.0 °F 52% 29.92 in 10.0 mi South 6.9 mph - N/A   Clear
6:13 PM 66.2 °F - 50.0 °F 56% 29.92 in 10.0 mi South 6.9 mph - N/A   Clear
6:34 PM 69.8 °F - 48.2 °F 46% 29.91 in 10.0 mi SSE 5.8 mph - N/A   Clear
6:53 PM 69.8 °F - 51.8 °F 53% 29.90 in 10.0 mi SSE 5.8 mph 9.2 mph N/A   Clear
7:13 PM 66.2 °F - 50.0 °F 56% 29.89 in 10.0 mi South 4.6 mph - N/A   Clear
7:34 PM 66.2 °F - 51.8 °F 60% 29.89 in 10.0 mi South 3.5 mph - N/A   Clear
7:53 PM 64.4 °F - 51.8 °F 64% 29.89 in 10.0 mi South 3.5 mph - N/A   Clear
8:14 PM 64.4 °F - 51.8 °F 64% 29.88 in 10.0 mi SSE 3.5 mph - N/A   Clear
8:34 PM 62.6 °F - 51.8 °F 68% 29.88 in 10.0 mi Calm Calm - N/A   Clear
8:53 PM 60.8 °F - 50.0 °F 68% 29.88 in 10.0 mi SSE 3.5 mph - N/A   Clear
9:13 PM 60.8 °F - 50.0 °F 68% 29.88 in 10.0 mi SE 3.5 mph - N/A   Clear
9:53 PM 57.2 °F - 48.2 °F 72% 29.88 in 10.0 mi Calm Calm - N/A   Clear
10:14 PM 57.2 °F - 48.2 °F 72% 29.88 in 10.0 mi SE 3.5 mph - N/A   Clear
10:34 PM 57.2 °F - 48.2 °F 72% 29.88 in 10.0 mi SE 3.5 mph - N/A   Clear
10:54 PM 55.4 °F - 48.2 °F 77% 29.87 in 10.0 mi SE 3.5 mph - N/A   Clear
11:34 PM 55.4 °F - 46.4 °F 72% 29.86 in 10.0 mi SSE 5.8 mph - N/A   Clear
11:53 PM 55.4 °F - 46.4 °F 72% 29.86 in 10.0 mi SE 4.6 mph - N/A   Clear